Other Surface Observations
Issued by NWS

Current Version | Previous Version | Text Only | Print | Product List | Glossary On
Versions: 1 2 3 4 5 6 7 8 9 10 11 12 13 14 15 16 17 18 19 20 21 22 23 24 25 26 27 28 29 30 31 32 33 34 35 36 37 38 39 40 41 42 43 44 45 46 47 48 49 50
000
SXUS52 KTAE 050519
OSOTAE
OSOTAE
North Florida/South Alabama/Southwest Georgia Weather Roundup
National Weather Service Tallahassee Florida
100 AM EDT SAT SEP 05 2015

Note: "fair" indicates few or no clouds below 12,000 feet with no
significant weather and/or obstructions to visibility.

!FLZ017-115-028-034-025-050600
...North Florida...

CITY           SKY/WX    TMP DP  RH WIND       PRES   REMARKS
TALLAHASSEE    CLEAR     78  73  84 CALM      29.97F
APALACHICOLA   CLEAR     75  75 100 CALM      29.97S
PERRY          PTCLDY    74  72  91 CALM      29.97F
CROSS CITY       N/A     74  72  93 CALM      29.97F
JACKSONVILLE   CLOUDY    74  73  97 N7        29.98R
$$

!FLZ112-006-005-002-011-050600
...Florida Panhandle...

CITY           SKY/WX    TMP DP  RH WIND       PRES   REMARKS
MARIANNA       PTCLDY    77  75  93 CALM      29.97S
BONIFAY        NOT AVBL
PANAMA CITY NW FAIR      75  73  93 CALM      29.97S
TYNDALL AFB    CLEAR     76  74  93 CALM      29.97S
TYND DRONE APT FAIR      77  75  95 CALM      29.98R
DE FUNIAK SPR  FAIR      75  73  92 CALM      29.99S
EGLIN AFB      CLEAR     78  74  86 CALM      29.98S
DESTIN         CLEAR     83  75  77 CALM      29.97F HX  90
HURLBURT       CLEAR     80  74  81 NW6       29.96F
CRESTVIEW      CLEAR     75  73  93 CALM      29.99F
PENSACOLA      CLEAR     80  74  81 W7        29.98S
$$

!ALZ063-066-050600
...South Alabama...

CITY           SKY/WX    TMP DP  RH WIND       PRES   REMARKS
DOTHAN         CLEAR     78  71  79 CALM      30.02S
OZARK CAIRNS   CLEAR     75  73  95 W2        29.98F
FT RUCKER HELI CLEAR     75  73  93 CALM      29.97F FOG
RUCKER HELI 3  FAIR      75  74  96 SW2       30.00S
RUCKER HELI 2  NOT AVBL
FLORALA APT    CLEAR     74  72  93 CALM      30.01S
ANDALUSIA      CLEAR     79  74  84 CALM      29.98F
TROY           CLEAR     74  72  93 CALM      30.00S FOG
EUFALA         MOCLDY    75  74  96 CALM      29.98R FOG
MOBILE         PTCLDY    76  75  97 CALM      30.00S
$$

!GAZ120>161-050600
...Southwest and South Central Georgia...

CITY           SKY/WX    TMP DP  RH WIND       PRES   REMARKS
THOMASVILLE    FAIR      72  72 100 E5        29.98S
BAINBRIDGE     PTCLDY    77  72  83 SE6       29.99S
MOODY AFB      CLOUDY    74  71  93 NE3       29.97F
VALDOSTA       CLOUDY    74  73  97 E6        29.97F
MOULTRIE       PTCLDY    75  72  88 CALM      29.98F
BLAKELY        PTCLDY    77  75  94 CALM      29.99R
ALBANY         CLEAR     77  70  79 CALM      30.01S
TIFTON         FAIR      73  70  88 CALM      29.99F
FITZGERALD     FAIR      75  73  96 CALM      30.01F
CORDELE        FAIR      76  73  90 CALM      30.01S
AMERICUS       FAIR      75  70  83 CALM      30.02S
HOMERVILLE     FAIR      73  73 100 CALM      29.99F
$$

!GMZ750-755-770-775-050600
...Coastal and Buoy Obs...

STATION/POSITION TIME  TEMP    WIND        PRES    VSBY  WAVE
                       AIR SEA DIR/SP/G                  HT/PER
                 (UTC) (F)     (DEG/KT/KT) (MB)    (MI)  (FT/S)
KEATON BEACH     0500   75      40/  3/  4 1014.7F
CEDAR KEY        0500   79      70/ 10/ 10 1015.4S
C TOWER          0500   83     310/  6/  6 1014.9F
APALACHICOLA BUO 0450   82 86  270/ 14/ 16 1015.2F         1/ 3
PANAMA CITY BUOY 0450   82 85  300/  2/  4 1015.8F         2/ 5
MOBILE BUOY      0450   83 85  300/  8/ 10 1015.7S         1/ 6
ORANGE BCH AL BU 0450   84 86  280/  8/ 10 1014.5F         1/ 3
$$



USA.gov is the U.S. government's official web portal to all federal, state and local government web resources and services.